EW4767 Weather Reports


Display with metric or nautical units.
time (UTC)temp
F
wind
direction
speed
MPH
gust
MPH
rain 1hr
in
rain 24hr
in
rain mn
in
humidity
%
barometer
mb
20260506191518 54 296 2.0 4.0 0.02 0.90 0.84 96 1004.8
20260506190006 55 105 0.0 3.0 0.04 0.90 0.84 96 1004.4
20260506184508 58 107 0.0 2.0 0.07 0.90 0.84 96 1004.5
20260506183006 58 119 1.0 2.0 0.08 0.89 0.83 96 1004.5
20260506181505 57 150 0.0 2.0 0.08 0.88 0.82 96 1004.8
20260506180013 57 250 0.0 2.0 0.10 0.86 0.80 96 1004.9
20260506174505 57 150 0.0 2.0 0.10 0.83 0.77 96 1004.9
20260506173006 56 261 0.0 2.0 0.13 0.81 0.75 96 1005.0
20260506171507 56 149 0.0 2.0 0.16 0.80 0.74 96 1005.0
20260506170009 56 30 0.0 2.0 0.14 0.76 0.70 96 1005.3
20260506164506 56 157 0.0 2.0 0.14 0.73 0.67 96 1005.4
20260506163006 56 161 0.0 2.0 0.13 0.68 0.62 96 1005.5
20260506161510 55 167 1.0 2.0 0.13 0.64 0.58 96 1005.5
20260506160016 55 146 0.0 2.0 0.15 0.62 0.56 96 1005.8
20260506154508 55 90 0.0 3.0 0.16 0.58 0.52 96 1005.9
20260506153008 55 103 0.0 2.0 0.17 0.55 0.49 96 1006.0
20260506151513 55 78 0.0 2.0 0.17 0.51 0.45 96 1006.1
20260506150008 54 78 0.0 2.0 0.17 0.47 0.41 96 1006.2
20260506144508 54 109 0.0 2.0 0.16 0.43 0.37 96 1006.5
20260506143015 54 129 1.0 4.0 0.14 0.38 0.32 96 1006.9
20260506141512 54 140 0.0 2.0 0.12 0.34 0.28 96 1007.1
20260506140012 55 145 0.0 2.0 0.10 0.30 0.24 96 1007.1
20260506134514 55 145 0.0 2.0 0.09 0.27 0.21 96 1006.9
20260506133014 54 74 0.0 2.0 0.09 0.24 0.18 96 1006.7
20260506131513 54 49 0.0 2.0 0.10 0.22 0.16 96 1006.7
20260506130016 54 232 0.0 2.0 0.11 0.20 0.14 96 1006.7
20260506124514 53 268 0.0 0.0 0.10 0.18 0.12 95 1007.0
20260506123016 53 268 0.0 2.0 0.08 0.15 0.09 95 1007.1
20260506121516 53 166 0.0 3.0 0.05 0.12 0.06 95 1007.3
20260506120020 53 207 0.0 2.0 0.02 0.09 0.03 95 1007.4
20260506114512 53 315 2.0 3.0 0.01 0.08 0.02 95 1007.1
20260506113013 53 287 0.0 2.0 0.00 0.07 0.01 95 1006.9
20260506111515 53 177 0.0 2.0 0.01 0.07 0.01 95 1006.8
20260506110023 53 257 0.0 2.0 0.01 0.07 0.01 95 1006.9
20260506104519 52 109 1.0 2.0 0.01 0.07 0.01 94 1006.7
20260506103026 52 360 0.0 3.0 0.01 0.07 0.01 94 1007.0
20260506101520 52 290 0.0 2.0 0.00 0.06 0.00 93 1007.0
20260506100016 52 312 0.0 2.0 0.00 0.07 0.00 93 1007.0
20260506094526 52 298 0.0 2.0 0.00 0.07 0.00 92 1006.6
20260506093012 52 298 0.0 2.0 0.00 0.07 0.00 92 1006.7
20260506091506 52 298 0.0 2.0 0.00 0.07 0.00 92 1006.6
20260506090004 52 280 0.0 2.0 0.00 0.07 0.00 91 1006.9
20260506084503 52 225 0.0 2.0 0.00 0.07 0.00 91 1006.8
20260506083023 52 288 0.0 2.0 0.00 0.07 0.00 90 1007.1
20260506081516 52 303 0.0 2.0 0.00 0.07 0.00 90 1007.2
20260506073008 53 268 1.0 3.0 0.00 0.07 0.00 89 1007.8
20260506071507 53 284 1.0 3.0 0.00 0.07 0.00 89 1007.7
20260506061516 54 265 2.0 4.0 0.00 0.07 0.00 89 1008.0
20260506044522 57 265 1.0 2.0 0.00 0.07 0.00 89 1007.8
20260506043018 58 254 1.0 6.0 0.00 0.07 0.00 87 1008.2
20260506041513 59 276 2.0 8.0 0.00 0.07 0.00 86 1008.3
20260506040009 60 292 1.0 4.0 0.00 0.07 0.00 85 1008.3
20260506034528 60 281 2.0 7.0 0.00 0.07 0.07 85 1008.1
20260506033024 60 274 2.0 7.0 0.00 0.07 0.07 85 1008.1
20260506031525 61 323 2.0 9.0 0.00 0.07 0.07 85 1007.9
20260506030022 61 295 2.0 5.0 0.00 0.07 0.07 84 1007.5
20260506024521 62 209 2.0 7.0 0.00 0.07 0.07 84 1007.4
20260506023014 60 253 2.0 9.0 0.00 0.07 0.07 91 1007.5
20260506021511 57 301 0.0 0.0 0.00 0.07 0.07 93 1007.5
20260506020028 57 301 0.0 2.0 0.00 0.07 0.07 93 1007.5
20260506014527 58 301 0.0 2.0 0.00 0.07 0.07 92 1007.2
20260506013025 58 301 0.0 2.0 0.00 0.07 0.07 91 1006.9
20260506011520 59 274 0.0 2.0 0.00 0.07 0.07 88 1006.6
20260506010018 61 274 0.0 2.0 0.00 0.07 0.07 85 1006.4
20260506004516 61 326 0.0 5.0 0.00 0.07 0.07 85 1006.4
20260506003028 60 282 1.0 7.0 0.00 0.07 0.07 86 1006.2
20260506001507 60 317 2.0 8.0 0.00 0.07 0.07 88 1005.7
20260506000003 59 329 0.0 0.0 0.00 0.07 0.07 88 1005.8
20260505234548 60 294 0.0 3.0 0.00 0.07 0.07 84 1005.6
20260505233022 61 319 2.0 4.0 0.00 0.07 0.07 85 1005.7
20260505231517 61 331 2.0 4.0 0.01 0.07 0.07 84 1005.4
20260505230016 61 346 2.0 5.0 0.01 0.07 0.07 83 1005.2
20260505224518 61 325 3.0 8.0 0.01 0.07 0.07 83 1005.1
20260505223010 62 319 2.0 13.0 0.01 0.07 0.07 81 1005.3
20260505221524 63 300 8.0 14.0 0.00 0.06 0.06 77 1005.5
20260505220023 64 304 7.0 14.0 0.00 0.06 0.06 73 1005.6
20260505214524 66 279 10.0 18.0 0.00 0.06 0.06 66 1005.7
20260505213019 66 270 6.0 15.0 0.00 0.06 0.06 65 1004.9
20260505211518 67 286 6.0 19.0 0.00 0.06 0.06 63 1004.6
20260505210014 68 302 8.0 30.0 0.00 0.06 0.06 62 1004.8
20260505204517 70 292 8.0 17.0 0.00 0.06 0.06 64 1004.3
20260505203027 70 339 4.0 8.0 0.03 0.06 0.06 69 1003.3
20260505201528 69 306 3.0 5.0 0.05 0.06 0.06 74 1003.4
20260505200026 67 304 2.0 4.0 0.05 0.06 0.06 78 1003.6
20260505194518 65 352 1.0 11.0 0.05 0.06 0.06 77 1003.3
20260505193018 72 337 13.0 23.0 0.02 0.03 0.03 53 1004.4